SL-16 DEB, 22603

Orbit data source: Space-Track

SL-16 DEB, 22603 is space debris in LEO originally from a launch on Fri, 26 Mar 1993 UTC launched from the Tyuratam Missile And Space Complex (TTMTR). Debris objects in space refer to the collection of defunct objects orbiting the Earth. Examples of debris include non-operational satellites, rocket bodies, and fragments generated from explosions, collisions, or faulty payload assembly.

Loading next visibility...
Identifier
22603, 1993-016M
Orbit
LEO
Country
Flag of CISCIS
Related business
Manufacturer
Unknown
Mission
Spacecraft
Bus & Motor
Unknown
Mass
Unknown
Launch date (UTC)
1993-03-26 (33 years ago)
Launch vehicle
Unknown
Launch site
Tyuratam Missile And Space Complex (TTMTR)
Object type
Payload
Rocket body
Debris
Shape & HBR
Unknown shape, 0.3 m
Radar Cross Section
Medium (>0.1 m² and <1 m²)

Expand to show TLE details & history
Last TLE update: 7 hours ago

TLE from 7 hours ago
0 SL-16 DEB
1 22603U 93016M   25293.56436266  .00000051  00000-0  85170-4 0  9992
2 22603  70.9945 153.8138 0159879 349.8405  47.8280 13.78730794638555
Epoch: 2025-10-20T13:32Z
TLE epoch observation values (Epoch: 2025-10-20T13:32:40.933Z)
Latitude
36.63915°
Longitude
-63.85886°
Altitude
895.008 km
Speed
7.447 km/s
True Right ascension
11h 14m 18s
True Declination
36° 28' 40"
Sunlit
Object was in daylight at epoch
Visualization orbit readout
Latitude
Unknown
Longitude
Unknown
Altitude
Unknown
Speed
Unknown
Apparent Right ascension
Unknown
Apparent Declination
Unknown
Sunlit
N/A
Visualization observer readout
Local Sidereal Time
15:25:49
Azimuth
Unknown
Elevation
Unknown
Doppler factor
Unknown
Orbital elements
Apogee altitude
1,083.775 km
Perigee altitude
848.929 km
Semi-major axis
7,344.489 km
Eccentricity
0.01599
Inclination
70.9945°
RAAN
153.8138°
Arg. of periapsis
349.8405°
True anomaly
49.20414°
Mean anomaly
47.828°
Eccentric anomaly
48.51422°
Mean motion
3.44827 °/min
Orbital period
104.4 mins
BSTAR
0.00008517
Loading maneuver chart data...
Computing Atmospheric mass density...
Loading historical data...
Loading historical data...
Loading historical data...
Loading historical data...
Loading historical data...
Loading historical data...
Loading historical data...

Documentation

Showing up to 5 results
|